EHI
0 0 0 0 0 0 0 0 0 0 0 0 0 0 0 0 0 0 0 0 0 0 0 0 0 0 0 0 0 0 0 0 0 0 0 0 0 0 0 0 0 0 0
0 0 0 0 0 0 0 0 0 0 0 0 0 0 0 0 0 0 0 0 0 0 0 0 0 0 0 0 0 0 0 0 0 0 0 0 0 0 0 0 0 0 0
0 0 0 0 0 0 0 0 0 0 0 0 0 0 0 0 0 0 0 0 0 0 0 0 0 0 0 0 0 0 0 0 0 0 0 0 0 0 0 0 0 0 0
0 0 0 0 0 0 0 0 0 0 0 0 0 0 0 0 0 0 0 0 0 0 0 0 0 0 0 0 0 0 0 0 0 0 0 0 0 0 0 0 0 0 0
0 0 0 0 0 0 0 0 0 0 0 0 0 0 0 0 0 0 0 0 0 0 0 0 0 0 0 0 0 0 0 0 0 0 0 0 0 0 0 0 0 0 0
0 0 0 0 0 0 0 0 0 0 0 0 0 0 0 0 0 0 0 0 0 0 0 0 0 0 0 0 0 0 0 0 0 0 0 0 0 0 0 0 0 0 0
0 0 0 0 0 0 0 0 0 0 0 0 0 0 0 0 0 0 0 0 0 0 0 0 0 0 0 0 0 0 0 0 0 0 0 0 0 0 0 0 0 0 0
0 0 0 0 0 0 0 0 0 0 0 0 0 0 0 0 0 0 0 0 0 0 0 0 0 0 0 0 0 0 0 0 0 0 0 0 0 0 0 0 0 0 0
0 0 0 0 0 0 0 0 0 0 0 0 0 0 0 0 0 0 0 0 0 0 0 0 0 0 0 0 0 0 0 0 0 0 0 0 0 0 0 0 0 0 0
0 0 0 0 0 0 0 0 0 0 0 0 0 0 0 0 0 0 0 0 0 0 0 0 0 0 0 0 0 0 0 0 0 0 0 0 0 0 0 0 0 0 0
0 0 0 0 0 0 0 0 0 0 0 0 0 0 0 0 0 0 0 0 0 0 0 0 0 0 0 0 0 0 0 0 0 0 0 0 0 0 0 0 0 0 0
0 0 0 0 0 0 0 0 0 0 0 0 0 0 0 0 0 0 0 0 0 0 0 0 0 0 0 0 0 0 0 0 0 0 0 0 0 0 0 0 0 0 0
0 0 0 0 0 0 0 0 0 0 0 0 0 0 0 0 0 0 0 0 0 0 0 0 0 0 0 0 0 0 0 0 0 0 0 0 0 0 0 0 0 0 0
0 0 0 0 0 0 0 0 0 0 0 0 0 0 0 0 0 0 0 0 0 0 0 0 0 0 0 0 0 0 0 0 0 0 0 0 0 0 0 0 0 0 0
0 0 0 0 0 0 0 0 0 0 0 0 0 0 0 0 0 0 0 0 0 0 0 0 0 0 0 0 0 0 0 0 0 0 0 0 0 0 0 0 0 0 0
0 0 0 0 0 0 0 0 0 0 0 0 0 0 0 0 0 0 0 0 0 0 0 0 0 0 0 0 0 0 0 0 0 0 0 0 0 0 0 0 0 0 0
0 0 0 0 0 0 0 0 0 0 0 0 0 0 0 0 0 0 0 0 0 0 0 0 0 0 0 0 0 0 0 0 0 0 0 0 0 0 0 0 0 0 0
0 0 0 0 0 0 0 0 0 0 0 0 0 0 0 0 0 0 0 0 0 0 0 0 0 0 0 0 0 0 0 0 0 0 0 0 0 0 0 0 0 0 0
0 0 0 0 0 0 0 0 0 0 0 0 0 0 0 0 0 0 0 0 0 0 0 0 0 0 0 0 0 0 0 0 0 0 0 0 0 0 0 0 0 0 0
0 0 0 0 0 0 0 0 0 0 0 0 0 0 0 0 0 0 0 0 0 0 0 0 0 0 0 0 0 0 0 0 0 0 0 0 0 0 0 0 0 0 0
0 0 0 0 0 0 0 0 0 0 0 0 0 0 0 0 0 0 0 0 0 0 0 0 0 0 0 0 0 0 0 0 0 0 0 0 0 0 0 0 0 0 0
0 0 0 0 0 0 0 0 0 0 0 0 0 0 0 0 0 0 0 0 0 0 0 0 0 0 0 0 0 0 0 0 0 0 0 0 0 0 0 0 0 0 0
0 0 0 0 0 0 0 0 0 0 0 0 0 0 0 0 0 0 0 0 0 0 0 0 0 0 0 0 0 0 0 0 0 0 0 0 0 0 0 0 0 0 0
0 0 0 0 0 0 0 0 0 0 0 0 0 0 0 0 0 0 0 0 0 0 0 0 0 0 0 0 0 0 0 0 0 0 0 0 0 0 0 0 0 0 0
0 0 0 0 0 0 0 0 0 0 0 0 0 0 0 0 0 0 0 0 0 0 0 0 0 0 0 0 0 0 0 0 0 0 0 0 0 0 0 0 0 0 0
0 0 0 0 0 0 0 0 0 0 0 0 0 0 0 0 0 0 0 0 0 0 0 0 0 0 0 0 0 0 0 0 0 0 0 0 0 0 0 0 0 0 0
Wind_Speed
1 1 1 1 2 2 2 2 2 2 2 2 2 2 3 2 2 2 2 3 4 4 4 5 6 5 4 4 4 4 5 4 6 4 2 2 3 3 3 3 3 4 4
0 1 1 1 1 1 1 1 1 1 1 1 1 2 2 2 2 3 3 3 4 4 5 5 6 4 5 4 4 5 5 5 5 6 3 2 3 3 3 3 3 3 4
1 1 1 1 1 1 1 1 1 1 1 1 1 2 2 2 2 2 3 3 4 4 4 5 5 4 6 4 5 5 4 4 4 5 4 2 2 2 2 3 3 3 4
1 1 1 0 1 1 1 1 1 1 1 1 1 1 2 1 2 2 2 3 3 4 4 4 5 5 6 5 5 5 4 4 4 4 4 3 2 2 2 3 3 3 3
1 1 0 0 0 1 0 0 0 1 1 1 1 1 1 1 1 2 2 3 3 4 4 4 4 4 5 5 5 4 4 4 3 4 4 3 3 2 3 2 4 3 3
1 0 1 1 1 1 0 0 0 0 1 1 1 1 1 1 2 3 2 3 3 4 4 4 3 3 4 6 6 5 5 5 5 4 4 5 5 4 3 3 3 3 4
0 1 1 1 1 1 1 0 0 1 1 1 1 1 1 2 3 3 4 3 3 4 4 3 3 2 2 3 4 5 5 6 6 5 5 7 5 4 3 4 4 4 5
1 1 1 1 1 1 1 1 1 1 1 1 1 1 1 2 3 3 3 3 3 3 3 3 3 3 2 2 2 2 3 4 5 5 5 6 4 3 4 5 5 4 4
1 1 2 1 1 1 1 2 1 1 1 1 1 1 2 3 3 4 3 2 2 3 3 3 3 3 4 3 2 3 3 4 4 5 5 5 6 6 3 2 2 2 4
2 2 2 1 1 2 2 2 1 1 1 1 1 1 2 2 4 4 3 1 2 3 3 3 3 4 4 4 3 3 4 4 2 2 3 4 4 3 4 2 2 3 3
2 2 2 1 2 2 1 1 1 1 1 1 1 2 2 2 3 4 3 1 2 3 3 3 3 5 6 6 5 4 6 4 2 2 2 2 1 2 2 2 2 2 3
2 2 2 1 1 1 1 1 1 1 1 1 2 2 2 2 3 4 4 4 3 3 3 3 3 5 6 6 5 5 6 3 2 2 2 2 2 2 2 2 2 2 3
2 2 2 1 1 1 0 1 1 1 1 1 2 2 3 2 3 5 5 5 6 4 3 4 5 6 5 4 4 5 3 2 2 2 3 3 3 2 2 1 2 2 2
2 2 2 1 1 1 1 1 1 1 2 2 2 3 3 3 3 2 3 3 4 4 3 3 4 5 4 3 2 2 2 2 2 3 3 3 2 1 2 2 2 2 2
2 2 2 1 1 1 1 2 2 2 3 3 3 3 3 4 5 6 4 3 3 3 3 2 2 2 2 2 2 2 1 2 2 3 3 3 3 3 3 2 2 2 3
2 2 2 2 1 1 2 2 4 4 5 6 5 4 4 6 7 7 7 7 6 5 3 2 2 2 3 3 3 2 2 2 3 3 3 3 3 3 3 2 2 3 4
3 3 2 2 2 2 2 2 3 4 5 6 6 7 6 7 7 7 7 7 6 4 2 3 3 3 3 3 3 3 3 3 2 3 3 3 3 3 3 3 3 3 4
3 3 3 3 3 3 3 3 3 3 4 4 5 8 8 7 7 7 6 4 3 2 2 3 4 4 3 3 3 3 3 3 3 3 3 3 3 4 4 4 4 4 5
4 3 3 3 3 3 3 3 3 3 4 4 4 5 6 7 7 6 4 2 3 3 3 4 4 4 3 3 3 3 3 3 3 3 3 4 3 4 4 4 4 5 5
3 4 4 3 3 3 3 3 3 3 4 4 4 4 2 2 3 3 3 3 3 4 4 4 4 4 4 3 3 3 4 4 4 4 4 4 4 4 5 5 5 5 5
3 4 4 3 3 3 3 4 4 4 4 5 5 5 6 3 3 4 3 3 4 4 4 4 4 4 4 4 4 4 5 5 4 4 4 4 4 4 4 4 5 5 5
3 3 3 4 3 3 4 4 4 4 5 5 5 5 7 4 3 4 4 4 4 4 3 4 4 4 4 4 4 4 5 5 5 5 5 4 4 4 4 4 5 5 5
4 4 4 3 3 4 4 4 4 4 5 5 5 4 4 4 4 4 4 4 4 4 3 3 4 4 4 4 4 4 5 6 5 5 5 5 4 5 5 5 6 6 6
4 4 4 4 3 4 4 4 4 5 5 5 5 4 4 4 4 5 5 4 4 4 4 4 5 6 7 6 5 4 5 5 5 5 6 5 6 5 5 5 6 6 6
4 4 4 4 4 4 4 5 5 5 5 5 5 4 4 4 5 5 4 4 5 5 5 5 5 6 7 8 7 6 7 9 7 5 5 5 6 6 6 6 6 6 6
4 4 4 4 4 4 4 5 5 5 5 5 4 4 5 5 5 5 5 4 5 5 5 5 6 7 8 7 8 9 9 10 9 8 6 5 6 6 6 6 7 6 6
Wind_Direction
220 198 188 192 188 177 184 186 176 171 176 188 200 211 216 215 216 222 232 235 233 237 236 234 237 226 226 226 223 224 225 221 246 264 245 245 223 238 249 231 233 233 245
288 162 170 156 156 170 197 188 161 167 176 184 187 213 228 225 219 227 240 239 237 244 242 236 241 234 232 230 226 230 231 224 232 254 260 248 247 245 242 240 250 252 244
35 100 105 134 156 199 208 182 174 173 169 176 188 224 237 232 227 233 237 242 243 249 249 242 244 236 238 234 229 231 233 234 229 241 259 261 263 261 261 267 258 255 256
46 77 76 100 197 211 190 163 181 175 185 208 217 228 240 239 246 249 245 251 255 259 256 251 244 237 240 235 234 233 230 230 229 235 250 263 264 263 242 262 274 258 260
66 62 332 344 44 74 102 168 201 189 210 214 212 233 253 243 252 251 250 255 260 266 263 255 251 253 254 245 238 229 223 227 234 238 249 261 261 255 246 248 262 273 257
77 6 5 21 39 53 54 67 31 279 248 215 213 223 236 260 289 266 262 260 264 263 266 268 265 257 264 261 261 251 231 223 231 237 248 251 254 251 250 250 262 276 273
49 16 23 23 4 355 18 40 281 267 276 259 252 238 255 288 302 290 274 266 265 267 271 278 283 287 271 272 272 270 257 246 234 229 240 248 256 251 244 250 248 251 257
20 3 2 2 327 344 343 285 284 315 286 275 286 275 278 300 308 304 298 265 271 276 273 269 271 283 281 275 275 275 266 260 254 242 242 253 259 260 243 246 249 262 277
1 345 340 327 306 299 277 278 284 290 289 295 307 304 291 303 314 308 304 274 278 285 288 286 277 274 281 276 261 262 272 275 275 260 260 266 272 274 266 259 256 259 272
302 308 325 315 281 269 275 288 307 291 285 300 311 315 307 314 325 321 314 291 290 294 296 291 283 278 279 268 249 246 257 267 277 282 274 279 276 272 265 240 233 242 266
320 323 333 315 284 282 298 311 320 320 326 321 316 322 321 318 319 319 313 295 279 290 292 295 291 287 281 275 265 251 257 270 266 263 267 273 277 267 258 255 241 234 240
328 317 313 304 296 310 309 320 339 330 313 312 317 318 318 321 320 311 306 300 305 286 285 294 297 293 286 282 274 266 272 272 260 254 260 265 265 263 265 260 252 248 248
316 298 306 312 316 327 280 279 310 297 282 292 294 292 302 315 311 311 305 300 298 293 288 292 299 297 294 286 277 277 273 252 242 243 250 257 259 266 274 273 275 271 277
288 293 303 287 305 322 307 271 252 256 265 279 281 286 298 304 298 299 293 293 293 289 293 298 296 295 290 287 288 281 266 243 238 247 258 264 265 260 259 257 263 270 273
287 287 281 258 255 272 277 272 267 260 258 260 255 259 271 278 284 291 293 288 284 280 295 299 301 300 287 283 278 267 255 246 248 253 257 264 262 256 255 250 250 252 253
284 280 274 262 255 256 270 293 290 289 293 287 289 290 285 290 299 289 286 291 291 290 290 265 268 268 265 266 265 264 252 244 246 250 250 250 254 255 258 250 244 243 255
268 270 269 258 247 249 253 261 285 300 294 290 292 295 295 301 302 298 294 293 291 289 271 264 259 257 255 255 256 254 252 248 242 244 251 251 252 253 255 256 250 252 258
264 258 257 253 246 242 244 251 256 267 285 291 288 287 294 300 302 303 304 305 291 276 260 264 266 267 260 254 254 255 253 246 238 241 245 248 247 248 250 252 251 250 258
253 254 254 253 250 249 251 253 256 258 267 282 296 293 290 294 297 300 305 274 269 270 265 267 270 274 274 266 261 258 252 247 243 239 243 246 245 247 251 251 253 257 255
252 259 257 252 248 247 247 248 252 257 263 268 270 279 292 292 277 281 267 255 260 268 266 268 272 272 272 267 265 261 256 252 244 239 240 241 240 241 248 250 249 253 254
258 262 256 249 245 245 246 245 247 251 257 263 266 271 276 274 269 269 267 259 257 263 267 268 269 271 272 267 258 256 256 256 249 241 240 239 237 240 245 248 252 252 256
249 251 247 244 247 247 251 250 249 251 256 263 274 275 273 272 266 267 265 264 259 260 261 262 265 264 262 262 261 259 256 255 252 243 238 238 239 241 244 246 250 253 255
246 252 254 249 246 249 252 248 246 248 254 259 265 270 265 258 260 262 264 265 265 265 265 261 264 270 270 268 260 255 259 260 254 243 240 238 238 240 241 245 247 250 254
246 248 250 251 247 247 251 252 251 252 254 258 261 262 263 262 262 264 265 266 266 267 265 263 260 263 268 272 269 260 259 266 267 249 237 239 241 243 243 247 249 250 254
247 247 245 246 248 250 254 256 255 253 254 257 260 264 266 266 267 267 266 266 267 268 267 264 263 264 265 266 267 265 268 269 265 259 246 241 242 242 244 248 251 254 253
251 248 246 247 248 249 252 257 260 261 260 261 261 262 264 267 269 270 270 269 271 271 270 266 263 265 268 266 265 267 267 265 260 255 246 241 240 242 240 245 248 249 250